Location: Ernsee
(50.8780°N, 12.0389°E)
Time: 12:43:31
(UTC+00:00)

Cosmos 2327 Rocket - Pass Details

Date: 20 January 2020
Orbit: 943 x 1009 km, 83.0° (Epoch: 16 February)

Event Time Altitude Azimuth Distance (km) Brightness Sun altitude
Rises 03:52:55 0° 350° (N) 3,721 7.5 -29.6°
Reaches altitude 10° 03:55:28 10° 351° (N) 2,759 6.8 -29.2°
Maximum altitude 04:01:49 83° 81° (E) 990 4.4 -28.2°
Drops below altitude 10° 04:08:00 10° 169° (S) 2,695 6.9 -27.2°
Sets 04:10:28 0° 170° (S) 3,628 7.6 -26.9°
